| time (UTC) | temp C | wind direction | speed KPH | gust KPH | rain 1hr cm | rain 24hr cm | rain mn cm | humidity % | barometer mb |
| 20260510041102 | 11 | 23 | 0.0 | 0.0 | 0.00 | 0.00 | 0.13 | 97 | 1009.3 |
| 20260510040552 | 11 | 23 | 0.0 | 0.0 | 0.00 | 0.00 | 0.13 | 97 | 1009.6 |
| 20260510040051 | 11 | 23 | 0.0 | 0.0 | 0.00 | 0.00 | 0.13 | 97 | 1009.3 |
| 20260510035531 | 11 | 338 | 0.0 | 0.0 | 0.00 | 0.00 | 0.13 | 97 | 1009.4 |
| 20260510034512 | 11 | 315 | 0.0 | 0.0 | 0.00 | 0.00 | 0.13 | 97 | 1009.7 |
| 20260510034001 | 11 | 315 | 0.0 | 0.0 | 0.00 | 0.00 | 0.13 | 97 | 1009.4 |
| 20260510033451 | 11 | 315 | 0.0 | 0.0 | 0.00 | 0.00 | 0.13 | 97 | 1009.3 |
| 20260510032430 | 11 | 315 | 0.0 | 0.0 | 0.00 | 0.00 | 0.13 | 97 | 1009.6 |
| 20260510031920 | 11 | 315 | 0.0 | 0.0 | 0.00 | 0.00 | 0.13 | 97 | 1009.4 |
| 20260510031411 | 11 | 315 | 0.0 | 0.0 | 0.00 | 0.00 | 0.13 | 97 | 1009.6 |
| 20260510030900 | 11 | 315 | 0.0 | 0.0 | 0.00 | 0.00 | 0.13 | 97 | 1009.6 |
| 20260510025839 | 11 | 293 | 0.0 | 0.0 | 0.00 | 0.00 | 0.13 | 97 | 1009.7 |
| 20260510025330 | 11 | 338 | 0.0 | 0.0 | 0.00 | 0.00 | 0.13 | 97 | 1009.6 |
| 20260510024820 | 11 | 338 | 0.0 | 0.0 | 0.00 | 0.00 | 0.13 | 97 | 1009.6 |
| 20260510024309 | 12 | 338 | 0.0 | 0.0 | 0.00 | 0.00 | 0.13 | 97 | 1009.6 |
| 20260510023800 | 11 | 338 | 0.0 | 0.0 | 0.00 | 0.00 | 0.13 | 97 | 1009.5 |
| 20260510022740 | 12 | 315 | 0.0 | 0.0 | 0.00 | 0.00 | 0.13 | 97 | 1009.3 |
| 20260510022229 | 12 | 315 | 0.0 | 0.0 | 0.00 | 0.00 | 0.13 | 97 | 1009.4 |
| 20260510020658 | 11 | 0 | 0.0 | 0.0 | 0.00 | 0.00 | 0.13 | 97 | 1009.5 |
| 20260510020148 | 11 | 0 | 0.0 | 0.0 | 0.00 | 0.00 | 0.13 | 97 | 1009.5 |
| 20260510015638 | 11 | 0 | 0.0 | 0.0 | 0.00 | 0.00 | 0.13 | 97 | 1009.5 |
| 20260510014618 | 11 | 0 | 0.0 | 0.0 | 0.00 | 0.00 | 0.13 | 97 | 1009.6 |
| 20260510014108 | 11 | 0 | 0.0 | 0.0 | 0.00 | 0.00 | 0.13 | 97 | 1009.6 |
| 20260510013558 | 12 | 0 | 0.0 | 0.0 | 0.00 | 0.00 | 0.13 | 97 | 1009.6 |
| 20260510013047 | 12 | 0 | 0.0 | 0.0 | 0.00 | 0.00 | 0.13 | 97 | 1009.5 |
| 20260510012538 | 12 | 0 | 0.0 | 0.0 | 0.00 | 0.00 | 0.13 | 97 | 1009.6 |
| 20260510011517 | 12 | 0 | 0.0 | 0.0 | 0.00 | 0.00 | 0.13 | 97 | 1009.7 |
| 20260510011007 | 12 | 0 | 0.0 | 0.0 | 0.00 | 0.00 | 0.13 | 97 | 1009.9 |
| 20260510010456 | 12 | 0 | 0.0 | 0.0 | 0.00 | 0.00 | 0.13 | 97 | 1009.9 |
| 20260510005947 | 12 | 0 | 0.0 | 0.0 | 0.00 | 0.00 | 0.13 | 97 | 1009.8 |
| 20260510005437 | 12 | 0 | 0.0 | 0.0 | 0.00 | 0.00 | 0.13 | 97 | 1010.1 |
| 20260510004927 | 12 | 0 | 0.0 | 0.0 | 0.00 | 0.00 | 0.13 | 97 | 1009.9 |
| 20260510004416 | 12 | 0 | 0.0 | 0.0 | 0.00 | 0.00 | 0.13 | 97 | 1009.9 |
| 20260510003357 | 13 | 338 | 0.0 | 0.0 | 0.00 | 0.00 | 0.13 | 96 | 1010.4 |
| 20260510002847 | 13 | 338 | 0.0 | 0.0 | 0.00 | 0.00 | 0.13 | 97 | 1010.6 |
| 20260510002339 | 13 | 338 | 0.0 | 0.0 | 0.00 | 0.00 | 0.13 | 97 | 1010.5 |
| 20260510001826 | 13 | 338 | 0.0 | 0.0 | 0.00 | 0.00 | 0.13 | 97 | 1010.6 |
| 20260510001309 | 13 | 0.0 | 0.0 | 0.00 | 0.00 | 0.10 | 97 | ||
| 20260510000141 | 12 | 338 | 0.0 | 0.0 | 0.00 | 0.00 | 0.10 | 94 | 1011.1 |
| 20260509235943 | 13 | 338 | 0.0 | 0.0 | 0.03 | 1.02 | 0.10 | 96 | 1011.1 |
| 20260509235433 | 13 | 315 | 0.0 | 0.0 | 0.05 | 1.02 | 0.10 | 96 | 1011.1 |
| 20260509234922 | 13 | 315 | 0.0 | 0.0 | 0.05 | 1.02 | 0.10 | 96 | 1011.0 |
| 20260509234413 | 13 | 248 | 0.0 | 0.0 | 0.05 | 1.02 | 0.10 | 96 | 1011.3 |
| 20260509233902 | 13 | 270 | 0.0 | 0.0 | 0.05 | 1.02 | 0.10 | 96 | 1011.4 |
| 20260509233353 | 13 | 270 | 0.0 | 0.0 | 0.05 | 1.02 | 0.10 | 96 | 1011.4 |
| 20260509232842 | 13 | 270 | 0.0 | 0.0 | 0.10 | 1.02 | 0.10 | 96 | 1011.4 |
| 20260509232332 | 13 | 293 | 0.0 | 0.0 | 0.10 | 1.02 | 0.10 | 96 | 1011.1 |
| 20260509231822 | 13 | 293 | 0.0 | 0.0 | 0.10 | 1.02 | 0.10 | 96 | 1011.2 |
| 20260509231312 | 13 | 293 | 0.0 | 0.0 | 0.10 | 1.02 | 0.10 | 96 | 1011.5 |
| 20260509230251 | 13 | 293 | 0.0 | 0.0 | 0.05 | 0.99 | 0.05 | 96 | 1011.6 |
| 20260509225742 | 13 | 293 | 0.0 | 0.0 | 0.10 | 0.99 | 0.05 | 96 | 1011.6 |
| 20260509224721 | 13 | 293 | 0.0 | 0.0 | 0.05 | 0.97 | 0.03 | 96 | 1011.6 |
| 20260509224212 | 13 | 293 | 0.0 | 0.0 | 0.10 | 0.97 | 0.03 | 96 | 1011.4 |
| 20260509223702 | 13 | 293 | 0.0 | 0.0 | 0.13 | 0.97 | 0.03 | 96 | 1011.5 |
| 20260509223151 | 13 | 293 | 0.0 | 0.0 | 0.10 | 0.94 | 0.03 | 96 | 1011.4 |
| 20260509222130 | 13 | 270 | 0.0 | 0.0 | 0.13 | 0.94 | 0.00 | 96 | 1011.3 |
| 20260509221621 | 13 | 270 | 0.0 | 0.0 | 0.13 | 0.94 | 0.00 | 96 | 1011.2 |
| 20260509221110 | 13 | 270 | 0.0 | 0.0 | 0.13 | 0.94 | 0.00 | 96 | 1011.4 |
| 20260509220600 | 13 | 270 | 0.0 | 0.0 | 0.15 | 0.94 | 0.00 | 96 | 1011.4 |
| 20260509220050 | 13 | 293 | 0.0 | 0.0 | 0.15 | 0.94 | 0.00 | 96 | 1011.5 |
| 20260509215540 | 13 | 293 | 0.0 | 0.0 | 0.15 | 0.89 | 0.89 | 96 | 1011.5 |
| 20260509215030 | 13 | 315 | 0.0 | 0.0 | 0.15 | 0.89 | 0.89 | 95 | 1011.5 |
| 20260509214011 | 13 | 315 | 0.0 | 0.0 | 0.15 | 0.86 | 0.86 | 95 | 1011.8 |
| 20260509213459 | 13 | 315 | 0.0 | 0.0 | 0.13 | 0.84 | 0.84 | 95 | 1011.6 |
| 20260509212950 | 13 | 315 | 0.0 | 0.0 | 0.10 | 0.81 | 0.81 | 95 | 1011.5 |
| 20260509211930 | 13 | 315 | 0.0 | 0.0 | 0.10 | 0.81 | 0.81 | 95 | 1011.1 |
| 20260509211419 | 13 | 315 | 0.0 | 0.0 | 0.10 | 0.81 | 0.81 | 95 | 1011.3 |
| 20260509210909 | 13 | 315 | 0.0 | 0.0 | 0.10 | 0.81 | 0.81 | 95 | 1011.3 |
| 20260509210359 | 13 | 315 | 0.0 | 0.0 | 0.05 | 0.79 | 0.79 | 95 | 1011.1 |
| 20260509205849 | 13 | 315 | 0.0 | 0.0 | 0.05 | 0.79 | 0.79 | 95 | 1011.1 |
| 20260509205338 | 13 | 315 | 0.0 | 0.0 | 0.03 | 0.76 | 0.76 | 95 | 1011.0 |
| 20260509204829 | 13 | 315 | 0.0 | 0.0 | 0.03 | 0.76 | 0.76 | 95 | 1010.7 |
| 20260509204319 | 13 | 315 | 0.0 | 0.0 | 0.00 | 0.71 | 0.71 | 95 | 1010.6 |
| 20260509203258 | 13 | 293 | 0.0 | 0.0 | 0.03 | 0.71 | 0.71 | 95 | 1010.3 |
| 20260509202749 | 13 | 338 | 0.0 | 0.0 | 0.03 | 0.71 | 0.71 | 95 | 1010.3 |
| 20260509202239 | 13 | 338 | 0.0 | 0.0 | 0.03 | 0.71 | 0.71 | 95 | 1010.2 |
| 20260509201728 | 13 | 315 | 0.0 | 0.0 | 0.05 | 0.71 | 0.71 | 95 | 1010.1 |
| 20260509200708 | 13 | 293 | 0.0 | 0.0 | 0.10 | 0.71 | 0.71 | 94 | 1009.8 |
| 20260509200158 | 13 | 248 | 0.0 | 0.0 | 0.13 | 0.71 | 0.71 | 94 | 1009.7 |
| 20260509194627 | 13 | 338 | 0.0 | 0.0 | 0.23 | 0.71 | 0.71 | 94 | 1008.8 |
| 20260509193607 | 12 | 315 | 0.0 | 0.0 | 0.28 | 0.69 | 0.69 | 94 | 1008.8 |
| 20260509193056 | 12 | 338 | 0.0 | 0.0 | 0.28 | 0.69 | 0.69 | 94 | 1008.2 |
| 20260509192547 | 12 | 338 | 0.0 | 0.0 | 0.30 | 0.69 | 0.69 | 94 | 1007.9 |
| 20260509191526 | 12 | 338 | 0.0 | 0.0 | 0.36 | 0.66 | 0.66 | 94 | 1008.9 |
| 20260509191017 | 12 | 338 | 0.0 | 0.0 | 0.33 | 0.64 | 0.64 | 93 | 1009.3 |
| 20260509190507 | 13 | 0 | 0.0 | 0.0 | 0.36 | 0.64 | 0.64 | 93 | 1009.4 |
| 20260509185956 | 13 | 0 | 0.0 | 0.0 | 0.33 | 0.56 | 0.56 | 93 | 1009.9 |
| 20260509185448 | 13 | 0 | 0.0 | 0.0 | 0.33 | 0.53 | 0.53 | 93 | 1009.7 |
| 20260509184936 | 13 | 0 | 0.0 | 0.0 | 0.30 | 0.48 | 0.48 | 92 | 1009.9 |
| 20260509184426 | 13 | 45 | 0.0 | 0.0 | 0.33 | 0.48 | 0.48 | 92 | 1010.3 |
| 20260509183916 | 14 | 45 | 0.0 | 0.0 | 0.33 | 0.46 | 0.46 | 92 | 1010.3 |
| 20260509183405 | 13 | 135 | 0.0 | 0.0 | 0.36 | 0.43 | 0.43 | 91 | 1010.8 |
| 20260509182858 | 14 | 135 | 0.0 | 0.0 | 0.36 | 0.43 | 0.43 | 91 | 1010.8 |
| 20260509182346 | 13 | 135 | 0.0 | 0.0 | 0.36 | 0.38 | 0.38 | 91 | 1010.8 |
| 20260509180304 | 14 | 135 | 0.0 | 0.0 | 0.28 | 0.28 | 0.28 | 89 | 1011.0 |
| 20260509175754 | 14 | 135 | 0.0 | 0.0 | 0.23 | 0.23 | 0.23 | 88 | 1010.7 |
| 20260509175245 | 14 | 135 | 0.0 | 0.0 | 0.18 | 0.18 | 0.20 | 88 | 1010.6 |
| 20260509174735 | 14 | 135 | 0.0 | 0.0 | 0.15 | 0.15 | 0.15 | 87 | 1010.7 |
| 20260509173715 | 15 | 158 | 0.0 | 0.0 | 0.10 | 0.10 | 0.10 | 86 | 1010.8 |
| 20260509173205 | 15 | 135 | 0.0 | 0.0 | 0.05 | 0.05 | 0.05 | 85 | 1010.6 |
| 20260509172654 | 15 | 158 | 0.0 | 0.0 | 0.03 | 0.03 | 0.03 | 85 | 1010.5 |
| 20260509172144 | 15 | 158 | 0.0 | 0.0 | 0.03 | 0.03 | 0.03 | 86 | 1010.6 |
| 20260509171634 | 17 | 180 | 0.0 | 0.0 | 0.00 | 0.00 | 0.00 | 86 | 1010.6 |
| 20260509171123 | 17 | 248 | 0.0 | 0.0 | 0.00 | 0.00 | 0.00 | 86 | 1010.3 |
| 20260509170614 | 17 | 225 | 0.0 | 0.0 | 0.00 | 0.00 | 0.00 | 85 | 1010.5 |
| 20260509170103 | 17 | 248 | 0.0 | 0.0 | 0.00 | 0.00 | 0.00 | 84 | 1010.3 |
| 20260509165044 | 17 | 270 | 0.0 | 0.0 | 0.00 | 0.00 | 0.00 | 84 | 1010.0 |
| 20260509164536 | 17 | 270 | 0.0 | 0.0 | 0.00 | 0.00 | 0.00 | 84 | 1009.9 |
| 20260509164023 | 17 | 338 | 0.0 | 0.0 | 0.00 | 0.00 | 0.00 | 84 | 1009.8 |
| 20260509163514 | 17 | 338 | 0.0 | 0.0 | 0.00 | 0.00 | 0.00 | 83 | 1009.5 |
| 20260509163003 | 17 | 315 | 0.0 | 0.0 | 0.00 | 0.00 | 0.00 | 83 | 1009.4 |
| 20260509161943 | 17 | 0 | 0.0 | 0.0 | 0.00 | 0.00 | 0.00 | 82 | 1009.3 |
| 20260509160922 | 17 | 338 | 0.0 | 0.0 | 0.00 | 0.00 | 0.00 | 81 | 1009.1 |
| 20260509160412 | 17 | 135 | 0.0 | 0.0 | 0.00 | 0.00 | 0.00 | 80 | 1009.2 |
| 20260509155902 | 17 | 135 | 0.0 | 0.0 | 0.00 | 0.00 | 0.00 | 79 | 1009.3 |
| 20260509155352 | 18 | 135 | 0.0 | 0.0 | 0.00 | 0.00 | 0.00 | 78 | 1009.6 |
| 20260509154842 | 18 | 135 | 0.0 | 0.0 | 0.00 | 0.00 | 0.00 | 78 | 1009.8 |
| 20260509154332 | 18 | 135 | 0.0 | 0.0 | 0.00 | 0.00 | 0.00 | 77 | 1009.6 |
| 20260509153822 | 18 | 135 | 0.0 | 0.0 | 0.00 | 0.00 | 0.00 | 75 | 1009.6 |
| 20260509153313 | 18 | 135 | 0.0 | 0.0 | 0.00 | 0.00 | 0.00 | 75 | 1009.8 |
| 20260509152803 | 18 | 135 | 0.0 | 0.0 | 0.00 | 0.00 | 0.00 | 75 | 1009.6 |
| 20260509152251 | 18 | 135 | 0.0 | 0.0 | 0.00 | 0.00 | 0.00 | 75 | 1010.0 |
| 20260509151741 | 18 | 135 | 0.0 | 0.0 | 0.00 | 0.00 | 0.00 | 74 | 1010.3 |
| 20260509151232 | 18 | 158 | 0.0 | 0.0 | 0.00 | 0.00 | 0.00 | 72 | 1010.4 |
| 20260509150721 | 18 | 135 | 0.0 | 0.0 | 0.00 | 0.00 | 0.00 | 73 | 1010.4 |
| 20260509150211 | 18 | 135 | 0.0 | 0.0 | 0.00 | 0.00 | 0.00 | 73 | 1010.7 |
| 20260509145701 | 18 | 135 | 0.0 | 0.0 | 0.00 | 0.00 | 0.00 | 72 | 1010.5 |
| 20260509144640 | 18 | 135 | 0.0 | 0.0 | 0.00 | 0.00 | 0.00 | 72 | 1010.4 |
| 20260509144130 | 18 | 113 | 0.0 | 0.0 | 0.00 | 0.00 | 0.00 | 71 | 1010.7 |
| 20260509143620 | 18 | 135 | 0.0 | 0.0 | 0.00 | 0.00 | 0.00 | 71 | 1010.5 |
| 20260509143111 | 18 | 135 | 0.0 | 0.0 | 0.00 | 0.00 | 0.00 | 70 | 1010.8 |
| 20260509142600 | 18 | 158 | 0.0 | 0.0 | 0.00 | 0.00 | 0.00 | 71 | 1010.7 |
| 20260509142049 | 18 | 135 | 0.0 | 0.0 | 0.00 | 0.00 | 0.00 | 72 | 1010.6 |
| 20260509141540 | 18 | 135 | 0.0 | 0.0 | 0.00 | 0.00 | 0.00 | 72 | 1010.7 |
| 20260509140010 | 18 | 180 | 0.0 | 0.0 | 0.00 | 0.00 | 0.00 | 75 | 1010.6 |
| 20260509134439 | 19 | 135 | 0.0 | 0.0 | 0.00 | 0.00 | 0.00 | 75 | 1010.7 |
| 20260509133929 | 19 | 158 | 0.0 | 0.0 | 0.00 | 0.00 | 0.00 | 75 | 1010.8 |
| 20260509132909 | 19 | 135 | 0.0 | 0.0 | 0.00 | 0.00 | 0.00 | 75 | 1010.8 |
| 20260509132359 | 19 | 135 | 0.0 | 0.0 | 0.00 | 0.00 | 0.00 | 74 | 1010.8 |
| 20260509131848 | 19 | 135 | 0.0 | 0.0 | 0.00 | 0.00 | 0.00 | 75 | 1010.9 |
| 20260509131338 | 20 | 158 | 0.0 | 0.0 | 0.00 | 0.00 | 0.00 | 75 | 1010.9 |
| 20260509130829 | 18 | 135 | 0.0 | 0.0 | 0.00 | 0.00 | 0.00 | 72 | 1010.9 |
| 20260509130318 | 19 | 68 | 0.0 | 0.0 | 0.00 | 0.00 | 0.00 | 75 | 1011.0 |
| 20260509125808 | 19 | 90 | 0.0 | 0.0 | 0.00 | 0.00 | 0.00 | 75 | 1010.7 |
| 20260509125301 | 18 | 135 | 0.0 | 0.0 | 0.00 | 0.00 | 0.00 | 75 | 1011.2 |
| 20260509124748 | 19 | 135 | 0.0 | 0.0 | 0.00 | 0.00 | 0.00 | 76 | 1011.7 |
| 20260509123728 | 19 | 158 | 0.0 | 0.0 | 0.00 | 0.00 | 0.00 | 77 | 1011.7 |
| 20260509123218 | 20 | 135 | 0.0 | 0.0 | 0.00 | 0.00 | 0.00 | 73 | 1011.9 |
| 20260509121648 | 19 | 113 | 0.0 | 0.0 | 0.00 | 0.00 | 0.00 | 75 | 1012.0 |
| 20260509121138 | 19 | 135 | 0.0 | 0.0 | 0.00 | 0.00 | 0.00 | 76 | 1011.6 |
| 20260509115607 | 19 | 158 | 0.0 | 0.0 | 0.00 | 0.00 | 0.00 | 77 | 1011.7 |
| 20260509115057 | 19 | 135 | 0.0 | 0.0 | 0.00 | 0.00 | 0.00 | 78 | 1011.6 |
| 20260509114547 | 19 | 113 | 0.0 | 0.0 | 0.00 | 0.00 | 0.00 | 78 | 1011.8 |
| 20260509114036 | 19 | 135 | 0.0 | 0.0 | 0.00 | 0.00 | 0.00 | 77 | 1011.7 |
| 20260509113527 | 19 | 135 | 0.0 | 0.0 | 0.00 | 0.00 | 0.00 | 77 | 1011.8 |
| 20260509113017 | 19 | 113 | 0.0 | 0.0 | 0.00 | 0.00 | 0.00 | 74 | 1011.7 |
| 20260509112506 | 20 | 113 | 0.0 | 0.0 | 0.00 | 0.00 | 0.00 | 74 | 1011.8 |
| 20260509111957 | 20 | 113 | 0.0 | 0.0 | 0.00 | 0.00 | 0.00 | 76 | 1011.9 |
| 20260509110936 | 19 | 135 | 0.0 | 0.0 | 0.00 | 0.00 | 0.00 | 77 | 1012.0 |
| 20260509110426 | 19 | 135 | 0.0 | 0.0 | 0.00 | 0.00 | 0.00 | 77 | 1012.1 |
| 20260509105405 | 19 | 113 | 0.0 | 0.0 | 0.00 | 0.00 | 0.00 | 77 | 1012.3 |
| 20260509104856 | 19 | 135 | 0.0 | 0.0 | 0.00 | 0.00 | 0.00 | 76 | 1012.4 |
| 20260509104346 | 20 | 113 | 0.0 | 0.0 | 0.00 | 0.00 | 0.00 | 76 | 1012.5 |
| 20260509102306 | 20 | 135 | 0.0 | 0.0 | 0.00 | 0.00 | 0.00 | 75 | 1012.4 |
| 20260509101754 | 20 | 113 | 0.0 | 0.0 | 0.00 | 0.00 | 0.00 | 76 | 1012.6 |
| 20260509101244 | 20 | 113 | 0.0 | 0.0 | 0.00 | 0.00 | 0.00 | 76 | 1012.3 |
| 20260509100734 | 20 | 135 | 0.0 | 0.0 | 0.00 | 0.00 | 0.00 | 76 | 1012.2 |
| 20260509100225 | 19 | 135 | 0.0 | 0.0 | 0.00 | 0.00 | 0.00 | 78 | 1012.0 |
| 20260509095714 | 19 | 113 | 0.0 | 0.0 | 0.00 | 0.00 | 0.00 | 78 | 1012.0 |
| 20260509095204 | 20 | 135 | 0.0 | 0.0 | 0.00 | 0.00 | 0.00 | 77 | 1012.0 |
| 20260509094654 | 20 | 203 | 0.0 | 0.0 | 0.00 | 0.00 | 0.00 | 76 | 1012.2 |
| 20260509094143 | 20 | 158 | 0.0 | 0.0 | 0.00 | 0.00 | 0.00 | 74 | 1012.0 |
| 20260509093634 | 20 | 158 | 0.0 | 0.0 | 0.00 | 0.00 | 0.00 | 76 | 1012.1 |
| 20260509092613 | 20 | 135 | 0.0 | 0.0 | 0.00 | 0.00 | 0.00 | 76 | 1011.9 |
| 20260509092103 | 20 | 158 | 0.0 | 0.0 | 0.00 | 0.00 | 0.00 | 77 | 1011.9 |
| 20260509091554 | 19 | 135 | 0.0 | 0.0 | 0.00 | 0.00 | 0.00 | 77 | 1011.8 |
| 20260509091043 | 19 | 113 | 0.0 | 0.0 | 0.00 | 0.00 | 0.00 | 78 | 1011.6 |
| 20260509085513 | 18 | 113 | 0.0 | 0.0 | 0.00 | 0.00 | 0.00 | 80 | 1012.2 |
| 20260509085003 | 18 | 158 | 0.0 | 0.0 | 0.00 | 0.00 | 0.00 | 80 | 1012.2 |
| 20260509083942 | 18 | 135 | 0.0 | 0.0 | 0.00 | 0.00 | 0.00 | 83 | 1012.2 |
| 20260509083432 | 18 | 113 | 0.0 | 0.0 | 0.00 | 0.00 | 0.00 | 82 | 1012.1 |
| 20260509082923 | 18 | 90 | 0.0 | 0.0 | 0.00 | 0.00 | 0.00 | 83 | 1012.1 |
| 20260509082413 | 18 | 158 | 0.0 | 0.0 | 0.00 | 0.00 | 0.00 | 83 | 1012.3 |
| 20260509081902 | 18 | 158 | 0.0 | 0.0 | 0.00 | 0.00 | 0.00 | 84 | 1012.4 |
| 20260509080842 | 18 | 158 | 0.0 | 0.0 | 0.00 | 0.00 | 0.00 | 82 | 1012.3 |
| 20260509080332 | 18 | 225 | 0.0 | 0.0 | 0.00 | 0.00 | 0.00 | 82 | 1012.2 |
| 20260509075821 | 18 | 135 | 0.0 | 0.0 | 0.00 | 0.00 | 0.00 | 81 | 1012.5 |
| 20260509075312 | 18 | 225 | 0.0 | 0.0 | 0.00 | 0.00 | 0.00 | 83 | 1012.5 |
| 20260509074251 | 17 | 68 | 0.0 | 0.0 | 0.00 | 0.00 | 0.00 | 84 | 1012.3 |
| 20260509073742 | 17 | 315 | 0.0 | 0.0 | 0.00 | 0.00 | 0.00 | 85 | 1012.8 |
| 20260509073231 | 16 | 315 | 0.0 | 0.0 | 0.00 | 0.00 | 0.00 | 85 | 1012.4 |
| 20260509072721 | 16 | 293 | 0.0 | 0.0 | 0.00 | 0.00 | 0.00 | 86 | 1012.6 |
| 20260509071700 | 16 | 315 | 0.0 | 0.0 | 0.00 | 0.00 | 0.00 | 88 | 1012.8 |
| 20260509071151 | 16 | 338 | 0.0 | 0.0 | 0.00 | 0.00 | 0.00 | 89 | 1012.6 |
| 20260509070641 | 15 | 315 | 0.0 | 0.0 | 0.00 | 0.00 | 0.00 | 90 | 1012.8 |
| 20260509070131 | 15 | 315 | 0.0 | 0.0 | 0.00 | 0.00 | 0.00 | 91 | 1012.6 |
| 20260509065620 | 15 | 293 | 0.0 | 0.0 | 0.00 | 0.00 | 0.00 | 92 | 1012.7 |
| 20260509065110 | 15 | 315 | 0.0 | 0.0 | 0.00 | 0.00 | 0.00 | 93 | 1012.6 |
| 20260509064601 | 15 | 315 | 0.0 | 0.0 | 0.00 | 0.00 | 0.00 | 94 | 1012.6 |
| 20260509063540 | 15 | 338 | 0.0 | 0.0 | 0.00 | 0.00 | 0.00 | 94 | 1012.6 |
| 20260509062520 | 14 | 315 | 0.0 | 0.0 | 0.00 | 0.00 | 0.00 | 95 | 1012.6 |
| 20260509062009 | 13 | 315 | 0.0 | 0.0 | 0.00 | 0.00 | 0.00 | 95 | 1012.7 |
| 20260509061459 | 13 | 293 | 0.0 | 0.0 | 0.00 | 0.00 | 0.00 | 95 | 1012.9 |
| 20260509060949 | 13 | 293 | 0.0 | 0.0 | 0.00 | 0.00 | 0.00 | 95 | 1012.8 |
| 20260509060439 | 13 | 270 | 0.0 | 0.0 | 0.00 | 0.00 | 0.00 | 95 | 1012.9 |
| 20260509055929 | 13 | 270 | 0.0 | 0.0 | 0.00 | 0.00 | 0.00 | 95 | 1012.7 |
| 20260509055418 | 13 | 270 | 0.0 | 0.0 | 0.00 | 0.00 | 0.00 | 95 | 1012.9 |
| 20260509054909 | 13 | 270 | 0.0 | 0.0 | 0.00 | 0.00 | 0.00 | 95 | 1012.8 |
| 20260509054359 | 13 | 293 | 0.0 | 0.0 | 0.00 | 0.00 | 0.00 | 95 | 1012.9 |
| 20260509053848 | 13 | 338 | 0.0 | 0.0 | 0.00 | 0.00 | 0.00 | 96 | 1012.8 |
| 20260509053338 | 13 | 338 | 0.0 | 0.0 | 0.00 | 0.00 | 0.00 | 96 | 1012.9 |
| 20260509052829 | 12 | 315 | 0.0 | 0.0 | 0.00 | 0.00 | 0.00 | 96 | 1012.6 |
| 20260509052319 | 12 | 338 | 0.0 | 0.0 | 0.00 | 0.00 | 0.00 | 96 | 1012.6 |
| 20260509051808 | 12 | 293 | 0.0 | 0.0 | 0.00 | 0.00 | 0.00 | 96 | 1012.6 |
| 20260509051258 | 12 | 270 | 0.0 | 0.0 | 0.00 | 0.00 | 0.00 | 96 | 1012.6 |
| 20260509045727 | 12 | 293 | 0.0 | 0.0 | 0.00 | 0.00 | 0.00 | 96 | 1012.4 |
| 20260509045217 | 12 | 270 | 0.0 | 0.0 | 0.00 | 0.00 | 0.00 | 96 | 1012.4 |
| 20260509044708 | 12 | 270 | 0.0 | 0.0 | 0.00 | 0.00 | 0.00 | 96 | 1012.5 |
| 20260509044157 | 12 | 293 | 0.0 | 0.0 | 0.00 | 0.00 | 0.00 | 96 | 1012.4 |
| 20260509043647 | 12 | 293 | 0.0 | 0.0 | 0.00 | 0.00 | 0.00 | 96 | 1012.4 |
| 20260509043137 | 12 | 293 | 0.0 | 0.0 | 0.00 | 0.00 | 0.00 | 96 | 1012.5 |
| 20260509042117 | 12 | 293 | 0.0 | 0.0 | 0.00 | 0.00 | 0.00 | 96 | 1012.3 |
| 20260509041611 | 12 | 293 | 0.0 | 0.0 | 0.00 | 0.00 | 0.00 | 96 | 1012.4 |